Location: Burtsch�tz
(51.0528°N, 12.1764°E)
Time: 07:16:45
(UTC+00:00)

Cosmos 1892 - Pass Details

Date: 29 October 2020
Orbit: 504 x 524 km, 82.5° (Epoch: 01 December)

Event Time Altitude Azimuth Distance (km) Brightness Sun altitude
Rises 16:52:25 0° 353° (N) 2,670 6.3 -10.3°
Reaches altitude 10° 16:54:37 10° 359° (N) 1,777 5.3 -10.6°
Maximum altitude 16:58:25 49° 75° (ENE) 685 2.9 -11.2°
Drops below altitude 10° 17:02:11 10° 152° (SSE) 1,764 5.2 -11.8°
Sets 17:04:22 0° 158° (SSE) 2,647 6.1 -12.1°
